CZ-6A DEB

Satellite information

Favourite Embed

Satellite Type and Status

DEBRISIN ORBIT

Key statistics

Satellite CZ-6A DEB at a glance.

Uptime

970

Days in orbit

Revolutions

≈ 14.6

Per day

Orbit

SSO

Sun Synchronous Orbit

Inclination

98.6

Latest

Satellite identification and parameters

Extended collection of information and parameters for CZ-6A DEB.

Object identification

Identified? True

Debris? True

Object name: CZ-6A DEB

International designator: 2022-151VK

Object number (NORAD): 55194

Object ID (CCSDS): 55194

Country: PEOPLES REPUBLIC OF CHINA (PRC)

Current information (Y/N): Y

RCS size: SMALL

Orbital parameters

Period: 98.369 minutes

Inclination: 98.6401 deg

SMA: 7058.822 km

Apoapsis: 728.171 km

Periapsis: 633.203 km

RAAN: 227.874 deg

Eccentricy: 0.0067269

Argument of periapsis: 290.2975 deg

Mean anomaly: 69.1005 deg

Mean motion: 14.63876462 rev/day

Mean motion (dot): 0.0000729 rev/day2

B* drag term: 0.0013592 1/REarth

Two-line elements (TLE)

Creation date: July 8, 2025, 2:27 a.m.

Reference frame: TEME

Reference center: EARTH

Epoch: July 7, 2025, 4:35 p.m. UTC

TLE line 0: 0 CZ-6A DEB

TLE line 1: 1 55194U 22151VK 25188.69145617 .00007290 00000-0 13592-2 0 9998

TLE line 2: 2 55194 98.6401 227.8740 0067269 290.2975 69.1005 14.63876462134497

Live tracking on map

Real-time ground track for satellite CZ-6A DEB.

In-orbit conjunctions

A list of the most updated potential collisions computed for object CZ-6A DEB.

Target Orbit TCA Probability of collision Miss distance Type
ORBCOMM FM 39 LEO 2025-06-05 21:48:49 0.0001175872 999.0 (m) PAYLOAD

Associated space launch

Chinese satellite reported for atmospheric/ocean/environmental/spatial parameter research purposes, details TBD.

CZ-6A DEB was lifted into orbit during the mission ‘Long March 6A | Yunhai 3’, on board a Long March 6A space rocket.

The launch took place on Nov. 11, 2022, 10:52 p.m. from Launch Complex 9A.

For more information about the launch, click the button.

Launch to space Long March 6A | Yunhai 3
Long March 6A | Yunhai 3

Agency: N/A

Status: Launch Successful

Launch date: Nov. 11, 2022, 10:52 p.m. UTC

Rocket: Long March 6A

Launch pad: Launch Complex 9A

Location: Taiyuan Satellite Launch Center, People's Republic of China

...

Latest news about this satellite

There are no fresh news available about this satellite. Check back as we update our databases every day.


Newsletter sign-up

Weekly statistics, charts and insights to help you stay on top of the space industry.